Tracking 18844 objects as of 21-Nov-2017
HD Live streaming from Space Station
objects crossing your sky now

NATO 3A

Track NATO 3A now!
NATO 3A is classified as:


NORAD ID: 8808
Int'l Code: 1976-035A
Perigee: 35,801.6 km
Apogee: 36,029.4 km
Inclination: 11.5 °
Period: 1,442.3 minutes
Semi major axis: 42286 km
RCS: 7.2313 m2 (large)
Launch date: April 22, 1976
Source: North Atlantic Treaty Organization (NATO)
Launch site: AIR FORCE EASTERN TEST RANGE (AFETR)
aabbcc
Your satellite tracking list
Your tracking list is empty




NASA's NSSDC Master Catalog

Two Line Element Set (TLE):
1 08808U 76035A   17324.47179025  .00000085  00000-0  00000+0 0  9999
2 08808  11.5003 325.0278 0026933 250.3451 242.7599  0.99839071715980
Source of the keplerian elements: AFSPC